Wind_Speed
24 19 26 26 26 27 27 24 15 15 16 28 27 27 24 29 30 31 34 39 42 42 41 41 40 41 41 40 40 40 42 45 44 45 45 47 45 46
17 26 27 25 26 25 25 25 24 20 16 32 33 33 32 29 31 33 34 39 41 41 41 40 38 40 40 40 43 47 46 46 46 46 47 45 47 46
26 25 26 26 25 26 26 25 24 22 14 38 37 36 36 38 36 32 31 33 36 39 39 37 40 44 44 47 47 46 46 43 42 43 43 43 45 43
26 25 27 26 28 27 26 25 27 29 27 19 39 35 37 39 38 38 32 26 32 35 37 41 46 48 49 43 44 42 43 43 44 43 44 44 43 42
22 24 27 27 28 28 29 28 29 28 25 25 31 39 38 31 38 32 32 34 35 34 38 42 41 41 43 42 41 42 42 42 41 40 40 38 40 41
25 28 28 27 27 30 31 29 26 30 31 31 31 27 34 32 24 37 34 31 32 35 38 39 39 39 40 39 42 44 44 43 42 42 41 40 41 41
29 29 26 26 30 31 31 33 35 32 29 22 27 30 22 31 27 33 32 36 34 35 38 31 29 30 35 40 41 41 40 38 37 37 39 38 38 39
28 27 27 28 29 32 36 37 36 36 34 29 23 20 30 30 33 33 33 22 13 25 28 35 32 36 35 34 37 38 39 39 39 41 38 37 36 35
28 29 29 27 30 32 36 36 35 35 35 35 32 31 32 35 37 31 27 29 24 35 33 30 31 32 33 33 36 39 39 41 41 40 38 36 39 34
26 28 28 29 31 37 38 35 34 27 29 29 31 35 36 36 38 36 35 34 32 33 30 15 31 31 34 34 38 39 41 40 39 38 37 37 36 35
27 26 29 32 35 39 39 33 30 24 29 32 34 35 39 38 37 35 26 21 15 23 34 25 29 28 32 35 37 38 36 32 31 26 30 29 27 28
27 26 28 34 37 38 37 30 27 32 32 30 33 34 34 34 34 31 30 15 13 14 31 18 24 21 8 24 27 27 30 31 33 32 31 29 30 30
26 28 32 37 35 38 37 30 32 37 32 32 32 32 30 29 31 30 31 29 24 16 34 31 22 16 12 9 17 22 28 30 29 28 30 30 30 30
27 32 33 32 37 36 31 31 34 34 31 29 28 28 29 30 32 34 35 35 34 35 40 35 22 17 9 10 11 21 26 28 26 27 26 23 24 29
30 34 30 33 32 29 30 32 32 28 26 25 25 28 30 33 35 32 32 32 33 31 31 32 29 26 16 8 8 15 17 16 19 24 24 22 22 22
29 26 29 29 27 28 28 28 27 27 28 27 27 31 31 29 29 29 29 30 25 28 27 25 23 20 17 17 16 12 24 6 17 19 14 12 21 23
34 26 26 26 26 27 27 27 28 28 26 27 29 29 29 28 28 29 25 25 16 17 21 24 28 21 11 17 10 18 16 13 17 16 10 13 19 13
24 23 24 24 24 26 26 28 28 29 28 30 29 27 26 27 27 28 24 21 15 18 15 21 20 17 7 7 11 16 14 11 16 19 17 17 16 22
21 22 23 24 25 27 27 27 28 30 31 28 27 27 26 25 27 22 22 20 17 15 15 19 15 5 5 5 11 38 14 17 17 22 23 23 18 25
21 22 24 26 26 27 28 28 29 30 29 28 28 27 26 23 23 20 20 17 15 15 12 16 14 10 3 4 3 13 40 22 14 16 19 25 30 38
24 25 26 26 27 28 29 29 29 29 30 28 27 26 26 24 21 20 20 23 21 11 7 7 15 14 14 7 6 11 24 39 33 20 18 19 13 24
26 27 28 29 29 29 30 29 29 29 28 28 27 26 26 26 20 19 19 16 15 12 11 15 16 18 14 9 7 7 15 25 38 44 38 29 14 10
27 28 29 30 30 30 30 29 29 29 29 28 26 27 26 24 22 20 18 17 15 10 10 12 14 15 14 12 12 9 16 20 24 29 35 41 41 42
Wind_Direction
332 331 328 324 318 313 308 299 294 309 304 306 306 307 304 302 300 301 299 297 298 297 295 294 292 293 292 290 288 290 288 285 281 279 277 273 272 274
334 330 328 319 313 309 309 307 296 290 297 303 304 304 304 299 295 296 293 296 295 296 294 291 291 292 291 289 291 287 281 278 277 276 273 273 273 272
331 328 324 319 314 312 307 301 292 292 289 297 298 301 302 300 300 295 292 289 290 295 294 291 293 291 290 292 286 284 282 282 281 278 278 277 275 272
329 327 323 321 315 310 305 301 298 294 286 288 297 301 297 301 301 298 299 294 291 294 294 289 289 291 289 287 284 286 283 278 276 273 271 271 272 272
324 328 323 316 310 308 307 302 300 300 297 291 292 293 298 301 299 301 303 296 296 293 292 289 289 288 288 287 285 284 283 282 280 279 277 274 271 272
325 326 321 311 308 310 309 307 311 305 300 293 287 298 300 305 302 303 304 299 296 293 288 286 287 286 285 286 287 285 283 280 278 276 274 273 269 267
320 320 313 312 313 311 311 314 307 303 297 301 301 293 302 309 306 305 297 297 293 290 288 287 287 282 282 284 282 281 280 276 272 272 271 267 267 262
314 309 308 309 309 310 310 308 304 307 309 301 301 306 304 303 302 296 294 294 299 304 296 292 289 285 283 279 277 280 277 275 274 278 271 272 273 264
316 311 308 309 310 308 305 306 305 299 302 309 303 298 297 297 297 299 304 299 295 298 295 289 291 283 281 276 279 282 278 278 273 272 269 271 266 262
319 317 312 314 313 313 310 310 305 313 308 304 297 297 297 304 307 305 301 298 295 294 291 284 289 282 286 281 279 279 276 278 277 272 266 267 263 261
319 318 319 316 315 315 316 320 318 315 312 310 308 308 307 306 307 308 304 302 297 295 296 288 288 287 285 282 277 278 280 278 272 269 270 266 262 258
319 318 319 319 316 317 324 325 322 317 316 321 319 314 309 305 308 305 298 292 293 295 297 297 294 291 288 280 274 276 278 274 275 275 270 264 263 256
319 320 318 315 318 326 325 328 314 321 326 320 312 307 307 306 305 303 299 293 292 289 296 304 295 297 293 292 288 284 278 278 273 269 268 262 253 247
324 319 314 326 326 326 326 322 325 326 317 313 310 311 312 309 309 306 303 300 295 289 294 300 290 287 289 299 295 298 295 284 273 266 263 261 250 241
323 320 326 327 328 327 326 327 326 318 312 311 313 310 310 307 305 306 306 306 302 299 301 301 291 290 281 283 284 295 308 299 278 270 263 252 240 233
327 331 330 329 326 324 324 323 320 318 318 315 311 310 311 311 311 311 309 310 310 313 317 320 320 306 290 276 278 293 303 300 295 302 300 270 226 214
333 334 330 328 326 326 324 322 323 322 321 318 316 314 314 315 316 317 314 314 312 314 320 335 341 344 297 276 292 304 314 321 337 351 15 64 64 160
338 328 324 324 322 321 321 321 322 323 321 319 315 314 314 317 318 322 321 321 317 319 326 334 334 346 339 326 340 334 339 340 360 26 46 70 50 50
331 325 322 321 319 318 319 320 319 319 318 315 313 315 314 314 320 317 322 323 322 331 334 340 332 339 347 354 335 20 9 5 39 46 52 60 66 60
328 324 319 317 317 317 318 318 317 317 316 314 315 314 314 314 314 321 322 322 330 336 340 344 350 359 339 324 309 3 39 33 27 49 56 65 74 74
326 322 319 317 317 316 316 315 314 312 314 313 312 314 316 317 311 318 320 330 340 335 346 349 349 15 21 7 18 29 32 49 51 48 59 67 68 70
321 319 319 318 316 315 315 313 312 312 312 312 311 312 314 317 309 316 319 324 331 338 349 12 27 28 22 35 38 28 31 51 60 65 67 69 67 79
319 318 318 316 315 314 313 312 311 308 308 307 308 311 313 312 316 318 317 323 330 348 4 12 33 33 30 39 51 42 43 54 65 67 64 80 83 83
Height
763 761 758 754 751 747 743 739 733 716 705 702 703 702 700 697 693 689 684 677 671 665 659 654 648 644 639 635 631 628 625 622 619 616 612 611 609 606
760 757 754 750 747 743 738 735 731 724 706 701 695 693 691 688 685 681 676 669 661 656 651 645 640 634 630 626 623 619 614 610 606 604 600 600 597 594
757 754 750 747 742 738 733 729 724 721 710 688 688 684 679 675 671 670 666 660 653 648 642 636 630 625 620 617 612 607 603 599 596 593 589 588 585 583
752 749 746 741 737 733 728 723 718 713 707 694 680 677 672 667 662 656 653 650 645 639 635 627 620 615 610 604 600 595 592 588 584 581 578 576 573 572
748 745 741 737 732 727 722 716 710 704 700 692 679 671 664 661 653 648 644 638 635 629 624 618 612 605 600 594 588 583 579 575 572 569 566 564 563 560
744 741 737 733 727 722 716 710 704 698 691 684 673 665 660 653 648 641 630 629 623 618 610 606 600 594 589 584 578 573 568 564 561 558 555 553 551 550
739 736 732 729 724 718 711 704 699 691 683 675 668 658 651 646 640 633 624 615 611 607 596 591 588 583 577 572 567 561 556 552 548 545 542 539 538 536
733 729 725 722 716 711 706 699 693 684 677 670 660 654 645 640 633 625 616 607 595 599 589 580 579 569 566 561 555 549 543 539 535 532 529 527 526 524
728 723 718 715 710 704 696 690 685 679 672 666 656 649 640 633 625 615 610 604 594 586 582 566 567 558 553 548 543 537 530 526 522 519 517 516 514 513
724 719 714 709 704 696 688 681 674 670 665 659 652 643 635 627 621 613 603 595 586 578 574 560 555 547 541 536 529 523 517 513 509 507 505 503 502 501
720 715 711 704 698 690 681 673 668 662 657 650 644 636 629 621 614 605 597 590 577 568 562 555 544 537 530 521 514 508 504 501 497 494 492 491 491 491
714 710 705 700 691 683 676 669 663 655 648 640 635 627 621 613 607 601 592 583 574 560 552 549 537 531 516 507 501 497 494 490 487 483 481 480 481 481
710 704 698 692 684 678 672 666 659 650 643 637 629 621 613 606 599 592 585 578 568 557 546 541 529 523 518 503 493 490 485 478 475 471 470 470 469 470
707 700 693 686 680 674 668 662 654 647 641 633 625 616 608 599 591 584 576 568 561 551 540 534 525 518 511 503 493 482 476 469 464 459 457 456 457 458
704 696 689 683 677 670 664 657 651 644 637 629 621 612 604 595 586 577 569 560 551 543 535 527 520 512 508 503 495 480 471 458 455 449 446 444 444 446
698 691 686 681 675 669 661 654 649 642 634 626 618 609 599 590 582 574 564 554 545 534 528 522 514 508 502 497 491 479 468 461 448 442 436 431 432 437
694 689 683 677 670 664 657 652 645 638 630 623 614 605 596 588 578 570 562 553 546 535 525 518 511 503 498 495 488 478 467 457 449 440 435 430 431 434
693 689 682 676 669 663 655 648 641 634 627 620 612 604 595 586 577 568 560 553 544 535 527 521 513 505 499 494 489 478 469 462 455 448 442 437 439 438
693 687 681 674 667 660 654 647 638 631 625 617 609 601 594 585 576 567 560 552 543 536 530 524 517 512 507 502 492 485 476 470 464 457 454 451 451 452
692 686 679 672 665 658 651 644 636 629 621 614 606 599 591 584 575 567 560 553 544 538 532 526 521 516 514 511 506 495 486 479 475 472 469 467 468 467
688 682 676 669 662 655 648 641 634 626 619 611 603 596 588 582 573 567 560 553 547 541 536 531 526 521 516 511 508 502 498 492 487 484 483 480 479 479
686 679 672 666 659 652 645 638 630 622 615 607 600 593 586 579 572 566 560 554 549 544 540 536 531 525 521 518 517 514 509 506 501 498 495 493 493 495
683 677 670 662 655 648 641 634 627 619 611 604 597 590 583 577 571 565 560 555 550 546 543 540 536 532 529 527 524 523 519 517 515 513 514 513 511 511